Location: La Silve
(44.2414°N, 5.8889°E)
Time: 11:30:34
(UTC+00:00)

Cosmos 773 Rocket - Pass Details

Date: 01 December 2020
Orbit: 746 x 776 km, 74.1° (Epoch: 25 January)

Event Time Altitude Azimuth Distance (km) Brightness Sun altitude
Rises 16:40:09 0° 190° (S) 3,221 7.7 -7.4°
Reaches altitude 10° 16:42:31 10° 187° (S) 2,303 6.9 -7.8°
Maximum altitude 16:47:42 64° 107° (ESE) 855 4.1 -8.7°
Drops below altitude 10° 16:52:56 10° 26° (NNE) 2,333 6.1 -9.6°
Enters shadow 16:54:43 - 24° (NNE) 3,019 6.7 -9.8°
